Time,TemperatureF,DewpointF,PressureIn,WindDirection,WindDirectionDegrees,WindSpeedMPH,WindSpeedGustMPH,Humidity,HourlyPrecipIn,Conditions,Clouds,dailyrainin,SoftwareType,DateUTC
2013-05-28 00:02:00,76.2,68.1,30.14,ESE,105,3.0,16.0,76,0.00,,,0.00,Wunderground v.1.13,2013-05-28 04:02:00,
2013-05-28 00:04:00,76.2,68.5,30.14,ESE,108,3.0,16.0,77,0.00,,,0.00,Wunderground v.1.13,2013-05-28 04:04:00,
2013-05-28 00:06:00,76.1,68.4,30.14,East,83,3.0,3.0,77,0.00,,,0.00,Wunderground v.1.13,2013-05-28 04:06:00,
2013-05-28 00:12:00,76.0,68.3,30.14,SSE,152,2.0,2.0,77,0.00,,,0.00,Wunderground v.1.13,2013-05-28 04:12:00,
2013-05-28 00:14:00,75.9,68.2,30.14,East,92,2.0,2.0,77,0.00,,,0.00,Wunderground v.1.13,2013-05-28 04:14:00,
2013-05-28 00:20:00,75.7,68.4,30.14,East,86,2.0,10.0,78,0.00,,,0.00,Wunderground v.1.13,2013-05-28 04:20:00,
2013-05-28 00:26:00,75.6,68.6,30.15,ESE,111,1.0,10.0,79,0.00,,,0.00,Wunderground v.1.13,2013-05-28 04:26:00,
2013-05-28 00:32:00,75.5,68.5,30.15,ESE,106,1.0,10.0,79,0.00,,,0.00,Wunderground v.1.13,2013-05-28 04:32:00,
2013-05-28 00:38:00,75.3,68.3,30.15,ESE,115,0.0,10.0,79,0.00,,,0.00,Wunderground v.1.13,2013-05-28 04:38:00,
2013-05-28 00:44:00,75.2,68.6,30.15,SE,141,1.0,10.0,80,0.00,,,0.00,Wunderground v.1.13,2013-05-28 04:44:00,
2013-05-28 00:50:00,75.1,68.5,30.14,SE,133,1.0,10.0,80,0.00,,,0.00,Wunderground v.1.13,2013-05-28 04:50:00,
2013-05-28 00:56:00,75.0,68.4,30.14,ESE,123,1.0,3.0,80,0.00,,,0.00,Wunderground v.1.13,2013-05-28 04:56:00,
2013-05-28 01:02:00,74.9,68.7,30.14,SE,137,2.0,10.0,81,0.00,,,0.00,Wunderground v.1.13,2013-05-28 05:02:00,
2013-05-28 01:08:00,74.8,68.6,30.13,SE,144,1.0,2.0,81,0.00,,,0.00,Wunderground v.1.13,2013-05-28 05:08:00,
2013-05-28 01:14:00,74.7,68.8,30.13,ESE,111,1.0,1.0,82,0.00,,,0.00,Wunderground v.1.13,2013-05-28 05:14:00,
2013-05-28 01:20:00,74.6,68.7,30.13,SE,130,1.0,14.0,82,0.00,,,0.00,Wunderground v.1.13,2013-05-28 05:20:00,
2013-05-28 01:26:00,74.6,68.7,30.13,SE,124,1.0,2.0,82,0.00,,,0.00,Wunderground v.1.13,2013-05-28 05:26:00,
2013-05-28 01:32:00,74.5,68.6,30.13,East,98,1.0,14.0,82,0.00,,,0.00,Wunderground v.1.13,2013-05-28 05:32:00,
2013-05-28 01:38:00,74.4,68.9,30.13,ESE,113,1.0,14.0,83,0.00,,,0.00,Wunderground v.1.13,2013-05-28 05:38:00,
2013-05-28 01:44:00,74.3,68.8,30.12,SE,128,1.0,3.0,83,0.00,,,0.00,Wunderground v.1.13,2013-05-28 05:44:00,
2013-05-28 01:50:00,74.3,68.8,30.12,SE,143,1.0,14.0,83,0.00,,,0.00,Wunderground v.1.13,2013-05-28 05:50:00,
2013-05-28 01:56:00,74.2,68.7,30.11,ESE,105,0.0,14.0,83,0.00,,,0.00,Wunderground v.1.13,2013-05-28 05:56:00,
2013-05-28 02:02:00,74.1,69.0,30.11,East,80,1.0,14.0,84,0.00,,,0.00,Wunderground v.1.13,2013-05-28 06:02:00,
2013-05-28 02:08:00,74.0,68.9,30.11,ESE,119,1.0,1.0,84,0.00,,,0.00,Wunderground v.1.13,2013-05-28 06:08:00,
2013-05-28 02:14:00,74.0,68.9,30.11,East,99,0.0,0.0,84,0.00,,,0.00,Wunderground v.1.13,2013-05-28 06:14:00,
2013-05-28 02:20:00,73.9,68.8,30.11,ENE,77,0.0,7.0,84,0.00,,,0.00,Wunderground v.1.13,2013-05-28 06:20:00,
2013-05-28 02:26:00,73.8,68.7,30.11,East,86,0.0,7.0,84,0.00,,,0.00,Wunderground v.1.13,2013-05-28 06:26:00,
2013-05-28 02:32:00,73.7,68.9,30.11,East,91,1.0,7.0,85,0.00,,,0.00,Wunderground v.1.13,2013-05-28 06:32:00,
2013-05-28 02:38:00,73.7,68.9,30.10,SE,125,1.0,5.0,85,0.00,,,0.00,Wunderground v.1.13,2013-05-28 06:38:00,
2013-05-28 02:44:00,73.6,68.8,30.11,ESE,123,1.0,2.0,85,0.00,,,0.00,Wunderground v.1.13,2013-05-28 06:44:00,
2013-05-28 02:50:00,73.5,68.7,30.11,East,84,0.0,7.0,85,0.00,,,0.00,Wunderground v.1.13,2013-05-28 06:50:00,
2013-05-28 02:56:00,73.5,68.7,30.10,East,98,1.0,7.0,85,0.00,,,0.00,Wunderground v.1.13,2013-05-28 06:56:00,
2013-05-28 03:02:00,73.5,68.7,30.10,East,96,1.0,3.0,85,0.00,,,0.00,Wunderground v.1.13,2013-05-28 07:02:00,
2013-05-28 03:08:00,73.4,69.0,30.10,SE,143,1.0,1.0,86,0.00,,,0.00,Wunderground v.1.13,2013-05-28 07:08:00,
2013-05-28 03:14:00,73.3,68.9,30.10,East,95,1.0,1.0,86,0.00,,,0.00,Wunderground v.1.13,2013-05-28 07:14:00,
2013-05-28 03:20:00,73.3,68.9,30.10,ESE,107,0.0,5.0,86,0.00,,,0.00,Wunderground v.1.13,2013-05-28 07:20:00,
2013-05-28 03:26:00,73.2,68.8,30.09,East,90,0.0,5.0,86,0.00,,,0.00,Wunderground v.1.13,2013-05-28 07:26:00,
2013-05-28 03:32:00,73.1,68.7,30.09,East,92,1.0,5.0,86,0.00,,,0.00,Wunderground v.1.13,2013-05-28 07:32:00,
2013-05-28 03:38:00,73.0,68.6,30.09,East,84,1.0,2.0,86,0.00,,,0.00,Wunderground v.1.13,2013-05-28 07:38:00,
2013-05-28 03:44:00,73.0,68.6,30.08,East,92,0.0,5.0,86,0.00,,,0.00,Wunderground v.1.13,2013-05-28 07:44:00,
2013-05-28 03:50:00,73.0,68.6,30.09,East,90,0.0,5.0,86,0.00,,,0.00,Wunderground v.1.13,2013-05-28 07:50:00,
2013-05-28 03:56:00,73.0,68.6,30.08,SE,132,0.0,5.0,86,0.00,,,0.00,Wunderground v.1.13,2013-05-28 07:56:00,
2013-05-28 04:02:00,72.9,68.8,30.08,SE,130,0.0,5.0,87,0.00,,,0.00,Wunderground v.1.13,2013-05-28 08:02:00,
2013-05-28 04:08:00,72.9,68.8,30.08,East,82,0.0,0.0,87,0.00,,,0.00,Wunderground v.1.13,2013-05-28 08:08:00,
2013-05-28 04:14:00,72.8,68.7,30.08,East,83,0.0,0.0,87,0.00,,,0.00,Wunderground v.1.13,2013-05-28 08:14:00,
2013-05-28 04:20:00,72.8,68.7,30.08,East,82,1.0,5.0,87,0.00,,,0.00,Wunderground v.1.13,2013-05-28 08:20:00,
2013-05-28 04:26:00,72.8,68.7,30.07,ENE,74,1.0,5.0,87,0.00,,,0.00,Wunderground v.1.13,2013-05-28 08:26:00,
2013-05-28 04:32:00,72.8,68.7,30.07,East,82,1.0,5.0,87,0.00,,,0.00,Wunderground v.1.13,2013-05-28 08:32:00,
2013-05-28 04:38:00,72.8,68.7,30.08,ENE,72,1.0,2.0,87,0.00,,,0.00,Wunderground v.1.13,2013-05-28 08:38:00,
2013-05-28 04:44:00,72.7,68.6,30.07,East,88,2.0,5.0,87,0.00,,,0.00,Wunderground v.1.13,2013-05-28 08:44:00,
2013-05-28 04:50:00,72.6,68.5,30.07,ENE,75,1.0,5.0,87,0.00,,,0.00,Wunderground v.1.13,2013-05-28 08:50:00,
2013-05-28 04:56:00,72.5,68.7,30.08,East,86,1.0,5.0,88,0.00,,,0.00,Wunderground v.1.13,2013-05-28 08:56:00,
2013-05-28 05:02:00,72.5,68.7,30.08,ENE,76,0.0,5.0,88,0.00,,,0.00,Wunderground v.1.13,2013-05-28 09:02:00,
2013-05-28 05:08:00,72.5,68.7,30.08,ENE,78,0.0,0.0,88,0.00,,,0.00,Wunderground v.1.13,2013-05-28 09:08:00,
2013-05-28 05:14:00,72.3,68.5,30.08,ENE,78,0.0,0.0,88,0.00,,,0.00,Wunderground v.1.13,2013-05-28 09:14:00,
2013-05-28 05:20:00,72.2,68.4,30.08,East,82,0.0,5.0,88,0.00,,,0.00,Wunderground v.1.13,2013-05-28 09:20:00,
2013-05-28 05:26:00,72.2,68.4,30.08,ENE,72,0.0,5.0,88,0.00,,,0.00,Wunderground v.1.13,2013-05-28 09:26:00,
2013-05-28 05:32:00,72.2,68.4,30.09,ENE,70,0.0,5.0,88,0.00,,,0.00,Wunderground v.1.13,2013-05-28 09:32:00,
2013-05-28 05:38:00,72.2,68.4,30.08,ENE,74,0.0,5.0,88,0.00,,,0.00,Wunderground v.1.13,2013-05-28 09:38:00,
2013-05-28 05:43:00,72.1,68.3,30.09,ENE,72,1.0,5.0,88,0.00,,,0.00,Wunderground v.1.13,2013-05-28 09:43:00,
2013-05-28 05:50:00,72.1,68.7,30.09,ENE,69,0.0,3.0,89,0.00,,,0.00,Wunderground v.1.13,2013-05-28 09:50:00,
2013-05-28 05:56:00,72.1,68.7,30.09,ENE,64,1.0,5.0,89,0.00,,,0.00,Wunderground v.1.13,2013-05-28 09:56:00,
2013-05-28 06:02:00,72.1,68.7,30.09,East,90,1.0,5.0,89,0.00,,,0.00,Wunderground v.1.13,2013-05-28 10:02:00,
2013-05-28 06:08:00,72.0,68.6,30.09,ENE,67,0.0,1.0,89,0.00,,,0.00,Wunderground v.1.13,2013-05-28 10:08:00,
2013-05-28 06:14:00,72.0,68.6,30.09,East,82,0.0,0.0,89,0.00,,,0.00,Wunderground v.1.13,2013-05-28 10:14:00,
2013-05-28 06:20:00,72.0,68.6,30.09,ENE,72,0.0,7.0,89,0.00,,,0.00,Wunderground v.1.13,2013-05-28 10:20:00,
2013-05-28 06:26:00,72.1,68.7,30.09,ENE,63,1.0,7.0,89,0.00,,,0.00,Wunderground v.1.13,2013-05-28 10:26:00,
2013-05-28 06:32:00,72.1,68.7,30.09,ENE,75,1.0,7.0,89,0.00,,,0.00,Wunderground v.1.13,2013-05-28 10:32:00,
2013-05-28 06:38:00,72.1,68.7,30.09,ENE,64,0.0,7.0,89,0.00,,,0.00,Wunderground v.1.13,2013-05-28 10:38:00,
2013-05-28 06:44:00,72.1,68.7,30.10,ENE,62,0.0,7.0,89,0.00,,,0.00,Wunderground v.1.13,2013-05-28 10:44:00,
2013-05-28 06:50:00,72.0,68.6,30.09,East,83,0.0,7.0,89,0.00,,,0.00,Wunderground v.1.13,2013-05-28 10:50:00,
2013-05-28 06:56:00,72.0,68.6,30.10,ENE,69,0.0,7.0,89,0.00,,,0.00,Wunderground v.1.13,2013-05-28 10:56:00,
2013-05-28 07:02:00,72.0,68.6,30.10,ENE,64,0.0,7.0,89,0.00,,,0.00,Wunderground v.1.13,2013-05-28 11:02:00,
2013-05-28 07:08:00,72.3,68.9,30.11,ENE,64,0.0,0.0,89,0.00,,,0.00,Wunderground v.1.13,2013-05-28 11:08:00,
2013-05-28 07:14:00,72.4,69.0,30.10,ENE,74,0.0,0.0,89,0.00,,,0.00,Wunderground v.1.13,2013-05-28 11:14:00,
2013-05-28 07:20:00,72.6,69.2,30.10,ENE,75,0.0,0.0,89,0.00,,,0.00,Wunderground v.1.13,2013-05-28 11:20:00,
2013-05-28 07:26:00,72.8,69.0,30.11,ESE,103,0.0,0.0,88,0.00,,,0.00,Wunderground v.1.13,2013-05-28 11:26:00,
2013-05-28 07:32:00,73.1,69.3,30.11,ENE,76,0.0,0.0,88,0.00,,,0.00,Wunderground v.1.13,2013-05-28 11:32:00,
2013-05-28 07:38:00,73.5,69.7,30.10,ENE,61,0.0,0.0,88,0.00,,,0.00,Wunderground v.1.13,2013-05-28 11:38:00,
2013-05-28 07:44:00,73.7,69.6,30.11,ENE,67,1.0,7.0,87,0.00,,,0.00,Wunderground v.1.13,2013-05-28 11:44:00,
2013-05-28 07:50:00,74.0,69.9,30.11,ENE,74,4.0,5.0,87,0.00,,,0.00,Wunderground v.1.13,2013-05-28 11:50:00,
2013-05-28 07:56:00,74.3,69.5,30.10,East,82,4.0,5.0,85,0.00,,,0.00,Wunderground v.1.13,2013-05-28 11:56:00,
2013-05-28 08:02:00,74.6,69.8,30.10,ESE,109,2.0,3.0,85,0.00,,,0.00,Wunderground v.1.13,2013-05-28 12:02:00,
2013-05-28 08:08:00,74.9,69.7,30.11,ENE,77,1.0,8.0,84,0.00,,,0.00,Wunderground v.1.13,2013-05-28 12:08:00,
2013-05-28 08:14:00,75.3,69.8,30.11,ENE,73,3.0,3.0,83,0.00,,,0.00,Wunderground v.1.13,2013-05-28 12:14:00,
2013-05-28 08:20:00,75.5,70.0,30.11,East,79,3.0,7.0,83,0.00,,,0.00,Wunderground v.1.13,2013-05-28 12:20:00,
2013-05-28 08:26:00,75.7,70.2,30.11,ENE,69,3.0,9.0,83,0.00,,,0.00,Wunderground v.1.13,2013-05-28 12:26:00,
2013-05-28 08:32:00,76.0,70.1,30.12,ENE,70,1.0,9.0,82,0.00,,,0.00,Wunderground v.1.13,2013-05-28 12:32:00,
2013-05-28 08:38:00,76.0,69.7,30.12,East,96,3.0,9.0,81,0.00,,,0.00,Wunderground v.1.13,2013-05-28 12:38:00,
2013-05-28 08:44:00,76.2,69.9,30.11,ENE,61,4.0,9.0,81,0.00,,,0.00,Wunderground v.1.13,2013-05-28 12:44:00,
2013-05-28 08:50:00,76.4,70.1,30.11,ENE,77,2.0,9.0,81,0.00,,,0.00,Wunderground v.1.13,2013-05-28 12:50:00,
2013-05-28 08:56:00,76.8,70.2,30.11,ESE,103,2.0,9.0,80,0.00,,,0.00,Wunderground v.1.13,2013-05-28 12:56:00,
2013-05-28 09:02:00,77.1,70.5,30.11,East,82,1.0,9.0,80,0.00,,,0.00,Wunderground v.1.13,2013-05-28 13:02:00,
2013-05-28 09:08:00,77.3,70.6,30.11,East,84,1.0,2.0,80,0.00,,,0.00,Wunderground v.1.13,2013-05-28 13:08:00,
2013-05-28 09:14:00,77.3,70.3,30.11,NE,55,1.0,3.0,79,0.00,,,0.00,Wunderground v.1.13,2013-05-28 13:14:00,
2013-05-28 09:20:00,77.3,70.6,30.11,East,95,2.0,14.0,80,0.00,,,0.00,Wunderground v.1.13,2013-05-28 13:20:00,
2013-05-28 09:26:00,77.6,70.9,30.11,SE,146,2.0,14.0,80,0.00,,,0.00,Wunderground v.1.13,2013-05-28 13:26:00,
2013-05-28 09:32:00,77.9,70.9,30.11,ESE,115,3.0,14.0,79,0.00,,,0.00,Wunderground v.1.13,2013-05-28 13:32:00,
2013-05-28 09:38:00,78.7,71.6,30.11,ESE,106,1.0,14.0,79,0.00,,,0.00,Wunderground v.1.13,2013-05-28 13:38:00,
2013-05-28 09:44:00,79.2,71.7,30.11,East,98,2.0,14.0,78,0.00,,,0.00,Wunderground v.1.13,2013-05-28 13:44:00,
2013-05-28 09:50:00,79.5,71.7,30.11,ESE,103,3.0,14.0,77,0.00,,,0.00,Wunderground v.1.13,2013-05-28 13:50:00,
2013-05-28 09:56:00,79.7,71.8,30.11,SE,125,4.0,14.0,77,0.00,,,0.00,Wunderground v.1.13,2013-05-28 13:56:00,
2013-05-28 10:02:00,80.0,71.8,30.11,East,82,4.0,4.0,76,0.00,,,0.00,Wunderground v.1.13,2013-05-28 14:02:00,
2013-05-28 10:08:00,80.3,72.0,30.10,East,90,3.0,3.0,76,0.00,,,0.00,Wunderground v.1.13,2013-05-28 14:08:00,
2013-05-28 10:14:00,80.6,71.9,30.11,SE,142,2.0,7.0,75,0.00,,,0.00,Wunderground v.1.13,2013-05-28 14:14:00,
2013-05-28 10:20:00,80.6,71.9,30.11,ESE,117,4.0,12.0,75,0.00,,,0.00,Wunderground v.1.13,2013-05-28 14:20:00,
2013-05-28 10:26:00,80.9,72.2,30.11,ESE,118,4.0,12.0,75,0.00,,,0.00,Wunderground v.1.13,2013-05-28 14:26:00,
2013-05-28 10:32:00,81.6,72.5,30.11,ENE,64,3.0,7.0,74,0.00,,,0.00,Wunderground v.1.13,2013-05-28 14:32:00,
2013-05-28 10:38:00,81.9,72.4,30.11,East,95,4.0,12.0,73,0.00,,,0.00,Wunderground v.1.13,2013-05-28 14:38:00,
2013-05-28 10:44:00,82.2,72.7,30.11,SE,142,3.0,12.0,73,0.00,,,0.00,Wunderground v.1.13,2013-05-28 14:44:00,
2013-05-28 10:50:00,82.1,72.2,30.11,ESE,108,4.0,12.0,72,0.00,,,0.00,Wunderground v.1.13,2013-05-28 14:50:00,
2013-05-28 10:56:00,82.4,72.5,30.11,SE,130,5.0,12.0,72,0.00,,,0.00,Wunderground v.1.13,2013-05-28 14:56:00,
2013-05-28 11:02:00,82.6,72.7,30.11,ESE,105,2.0,12.0,72,0.00,,,0.00,Wunderground v.1.13,2013-05-28 15:02:00,
2013-05-28 11:08:00,82.4,72.5,30.11,ENE,78,4.0,7.0,72,0.00,,,0.00,Wunderground v.1.13,2013-05-28 15:08:00,
2013-05-28 11:14:00,82.3,72.8,30.10,NE,53,6.0,11.0,73,0.00,,,0.00,Wunderground v.1.13,2013-05-28 15:14:00,
2013-05-28 11:20:00,82.9,72.5,30.11,East,83,6.0,6.0,71,0.00,,,0.00,Wunderground v.1.13,2013-05-28 15:20:00,
2013-05-28 11:26:00,83.1,72.7,30.10,ENE,65,5.0,13.0,71,0.00,,,0.00,Wunderground v.1.13,2013-05-28 15:26:00,
2013-05-28 11:32:00,83.5,72.7,30.10,ESE,119,4.0,6.0,70,0.00,,,0.00,Wunderground v.1.13,2013-05-28 15:32:00,
2013-05-28 11:38:00,83.5,73.1,30.10,ESE,123,3.0,13.0,71,0.00,,,0.00,Wunderground v.1.13,2013-05-28 15:38:00,
2013-05-28 11:44:00,84.3,73.0,30.11,ESE,104,2.0,13.0,69,0.00,,,0.00,Wunderground v.1.13,2013-05-28 15:44:00,
2013-05-28 11:50:00,84.2,72.9,30.11,SE,146,4.0,13.0,69,0.00,,,0.00,Wunderground v.1.13,2013-05-28 15:50:00,
2013-05-28 11:56:00,84.0,72.7,30.11,East,86,5.0,13.0,69,0.00,,,0.00,Wunderground v.1.13,2013-05-28 15:56:00,
2013-05-28 12:02:00,84.4,73.1,30.11,East,93,5.0,13.0,69,0.00,,,0.00,Wunderground v.1.13,2013-05-28 16:02:00,
2013-05-28 12:08:00,84.6,72.9,30.10,ESE,107,4.0,4.0,68,0.00,,,0.00,Wunderground v.1.13,2013-05-28 16:08:00,
2013-05-28 12:14:00,84.9,72.7,30.10,ENE,74,5.0,7.0,67,0.00,,,0.00,Wunderground v.1.13,2013-05-28 16:14:00,
2013-05-28 12:20:00,85.0,72.4,30.10,ENE,65,5.0,13.0,66,0.00,,,0.00,Wunderground v.1.13,2013-05-28 16:20:00,
2013-05-28 12:26:00,85.4,72.7,30.10,ESE,118,5.0,11.0,66,0.00,,,0.00,Wunderground v.1.13,2013-05-28 16:26:00,
2013-05-28 12:32:00,85.7,73.0,30.09,ENE,65,4.0,11.0,66,0.00,,,0.00,Wunderground v.1.13,2013-05-28 16:32:00,
2013-05-28 12:38:00,86.2,73.0,30.09,NE,53,3.0,11.0,65,0.00,,,0.00,Wunderground v.1.13,2013-05-28 16:38:00,
2013-05-28 12:44:00,86.4,73.2,30.09,East,82,3.0,5.0,65,0.00,,,0.00,Wunderground v.1.13,2013-05-28 16:44:00,
2013-05-28 12:50:00,85.9,72.8,30.09,ENE,58,4.0,6.0,65,0.00,,,0.00,Wunderground v.1.13,2013-05-28 16:50:00,
2013-05-28 12:56:00,85.9,72.8,30.09,SE,137,3.0,11.0,65,0.00,,,0.00,Wunderground v.1.13,2013-05-28 16:56:00,
2013-05-28 13:02:00,86.5,72.4,30.09,East,96,3.0,11.0,63,0.00,,,0.00,Wunderground v.1.13,2013-05-28 17:02:00,
2013-05-28 13:08:00,87.0,72.9,30.08,ENE,67,4.0,7.0,63,0.00,,,0.00,Wunderground v.1.13,2013-05-28 17:08:00,
2013-05-28 13:14:00,87.2,73.1,30.08,East,94,4.0,4.0,63,0.00,,,0.00,Wunderground v.1.13,2013-05-28 17:14:00,
2013-05-28 13:20:00,86.7,72.6,30.08,ENE,74,5.0,14.0,63,0.00,,,0.00,Wunderground v.1.13,2013-05-28 17:20:00,
2013-05-28 13:26:00,86.7,73.5,30.07,East,83,5.0,14.0,65,0.00,,,0.00,Wunderground v.1.13,2013-05-28 17:26:00,
2013-05-28 13:32:00,88.0,72.4,30.07,East,101,3.0,5.0,60,0.00,,,0.00,Wunderground v.1.13,2013-05-28 17:32:00,
2013-05-28 13:38:00,87.9,72.8,30.07,ENE,68,3.0,6.0,61,0.00,,,0.00,Wunderground v.1.13,2013-05-28 17:38:00,
2013-05-28 13:44:00,87.5,72.9,30.07,ENE,71,4.0,14.0,62,0.00,,,0.00,Wunderground v.1.13,2013-05-28 17:44:00,
2013-05-28 13:50:00,87.7,73.1,30.06,ENE,67,6.0,14.0,62,0.00,,,0.00,Wunderground v.1.13,2013-05-28 17:50:00,
2013-05-28 13:56:00,88.2,72.6,30.06,ESE,123,5.0,14.0,60,0.00,,,0.00,Wunderground v.1.13,2013-05-28 17:56:00,
2013-05-28 14:02:00,88.3,72.7,30.06,East,82,3.0,9.0,60,0.00,,,0.00,Wunderground v.1.13,2013-05-28 18:02:00,
2013-05-28 14:08:00,87.7,73.1,30.06,ENE,78,4.0,7.0,62,0.00,,,0.00,Wunderground v.1.13,2013-05-28 18:08:00,
2013-05-28 14:14:00,87.8,73.2,30.06,ENE,68,5.0,9.0,62,0.00,,,0.00,Wunderground v.1.13,2013-05-28 18:14:00,
2013-05-28 14:20:00,88.0,72.9,30.06,ESE,103,7.0,14.0,61,0.00,,,0.00,Wunderground v.1.13,2013-05-28 18:20:00,
2013-05-28 14:26:00,87.6,72.0,30.06,ENE,71,7.0,14.0,60,0.00,,,0.00,Wunderground v.1.13,2013-05-28 18:26:00,
2013-05-28 14:32:00,87.3,72.2,30.05,East,81,8.0,14.0,61,0.00,,,0.00,Wunderground v.1.13,2013-05-28 18:32:00,
2013-05-28 14:38:00,88.5,72.8,30.05,ENE,63,5.0,14.0,60,0.00,,,0.00,Wunderground v.1.13,2013-05-28 18:38:00,
2013-05-28 14:44:00,89.2,72.5,30.05,ESE,118,4.0,14.0,58,0.00,,,0.00,Wunderground v.1.13,2013-05-28 18:44:00,
2013-05-28 14:50:00,89.2,72.5,30.05,ENE,60,3.0,5.0,58,0.00,,,0.00,Wunderground v.1.13,2013-05-28 18:50:00,
2013-05-28 14:56:00,89.5,72.3,30.05,East,101,4.0,14.0,57,0.00,,,0.00,Wunderground v.1.13,2013-05-28 18:56:00,
2013-05-28 15:02:00,89.7,72.4,30.05,East,84,3.0,14.0,57,0.00,,,0.00,Wunderground v.1.13,2013-05-28 19:02:00,
2013-05-28 15:08:00,88.4,75.1,30.06,SE,142,4.0,5.0,65,0.00,,,0.00,Wunderground v.1.13,2013-05-28 19:08:00,
2013-05-28 15:14:00,86.4,73.2,30.05,SE,130,3.0,4.0,65,0.00,,,0.00,Wunderground v.1.13,2013-05-28 19:14:00,
2013-05-28 15:20:00,86.2,73.0,30.05,SE,141,1.0,13.0,65,0.00,,,0.00,Wunderground v.1.13,2013-05-28 19:20:00,
2013-05-28 15:26:00,86.5,72.9,30.05,ESE,107,0.0,13.0,64,0.00,,,0.00,Wunderground v.1.13,2013-05-28 19:26:00,
2013-05-28 15:32:00,86.7,72.1,30.04,East,101,0.0,13.0,62,0.00,,,0.00,Wunderground v.1.13,2013-05-28 19:32:00,
2013-05-28 15:38:00,87.0,71.9,30.04,ESE,105,1.0,13.0,61,0.00,,,0.00,Wunderground v.1.13,2013-05-28 19:38:00,
2013-05-28 15:44:00,87.7,71.1,30.03,ESE,106,2.0,13.0,58,0.00,,,0.00,Wunderground v.1.13,2013-05-28 19:44:00,
2013-05-28 15:50:00,88.5,71.3,30.02,SE,139,2.0,13.0,57,0.00,,,0.00,Wunderground v.1.13,2013-05-28 19:50:00,
2013-05-28 15:56:00,89.0,73.3,30.02,ENE,65,3.0,14.0,60,0.00,,,0.00,Wunderground v.1.13,2013-05-28 19:56:00,
2013-05-28 16:02:00,88.9,71.7,30.03,ESE,103,9.0,13.0,57,0.00,,,0.00,Wunderground v.1.13,2013-05-28 20:02:00,
2013-05-28 16:08:00,88.3,70.1,30.04,East,92,8.0,9.0,55,0.00,,,0.00,Wunderground v.1.13,2013-05-28 20:08:00,
2013-05-28 16:14:00,87.8,71.2,30.03,East,88,5.0,6.0,58,0.00,,,0.00,Wunderground v.1.13,2013-05-28 20:14:00,
2013-05-28 16:20:00,88.0,70.9,30.03,ESE,117,6.0,16.0,57,0.00,,,0.00,Wunderground v.1.13,2013-05-28 20:20:00,
2013-05-28 16:26:00,88.0,71.4,30.02,SE,125,5.0,16.0,58,0.00,,,0.00,Wunderground v.1.13,2013-05-28 20:26:00,
2013-05-28 16:32:00,88.4,71.2,30.03,SE,138,4.0,16.0,57,0.00,,,0.00,Wunderground v.1.13,2013-05-28 20:32:00,
2013-05-28 16:38:00,88.4,72.2,30.03,ESE,102,5.0,16.0,59,0.00,,,0.00,Wunderground v.1.13,2013-05-28 20:38:00,
2013-05-28 16:44:00,88.1,72.5,30.03,SE,132,4.0,16.0,60,0.00,,,0.00,Wunderground v.1.13,2013-05-28 20:44:00,
2013-05-28 16:50:00,88.0,72.9,30.02,NE,53,3.0,16.0,61,0.00,,,0.00,Wunderground v.1.13,2013-05-28 20:50:00,
2013-05-28 16:56:00,88.0,72.9,30.02,SE,128,3.0,16.0,61,0.00,,,0.00,Wunderground v.1.13,2013-05-28 20:56:00,
2013-05-28 17:02:00,88.3,73.1,30.02,East,83,4.0,16.0,61,0.00,,,0.00,Wunderground v.1.13,2013-05-28 21:02:00,
2013-05-28 17:08:00,88.3,73.1,30.02,East,93,5.0,17.0,61,0.00,,,0.00,Wunderground v.1.13,2013-05-28 21:08:00,
2013-05-28 17:14:00,88.1,73.4,30.02,ESE,123,8.0,13.0,62,0.00,,,0.00,Wunderground v.1.13,2013-05-28 21:14:00,
2013-05-28 17:20:00,85.1,72.9,30.04,ESE,117,8.0,12.0,67,0.00,,,0.00,Wunderground v.1.13,2013-05-28 21:20:00,
2013-05-28 17:26:00,78.9,70.3,30.05,SSE,158,8.0,12.0,75,2.81,,,0.14,Wunderground v.1.13,2013-05-28 21:26:00,
2013-05-28 17:32:00,75.5,70.7,30.05,South,174,9.0,11.0,85,1.50,,,0.36,Wunderground v.1.13,2013-05-28 21:32:00,
2013-05-28 17:38:00,74.2,70.7,30.06,SSE,164,8.0,12.0,89,0.98,,,0.45,Wunderground v.1.13,2013-05-28 21:38:00,
2013-05-28 17:44:00,73.1,70.0,30.05,South,178,8.0,12.0,90,0.55,,,0.53,Wunderground v.1.13,2013-05-28 21:44:00,
2013-05-28 17:50:00,72.5,69.7,30.04,SE,144,6.0,9.0,91,0.17,,,0.55,Wunderground v.1.13,2013-05-28 21:50:00,
2013-05-28 17:56:00,72.6,70.1,30.04,SE,129,4.0,12.0,92,0.24,,,0.57,Wunderground v.1.13,2013-05-28 21:56:00,
2013-05-28 18:02:00,72.7,70.2,30.04,ESE,122,1.0,12.0,92,0.13,,,0.58,Wunderground v.1.13,2013-05-28 22:02:00,
2013-05-28 18:08:00,72.5,70.0,30.04,East,79,1.0,1.0,92,0.06,,,0.58,Wunderground v.1.13,2013-05-28 22:08:00,
2013-05-28 18:14:00,72.6,70.1,30.04,East,94,1.0,1.0,92,0.04,,,0.58,Wunderground v.1.13,2013-05-28 22:14:00,
2013-05-28 18:20:00,73.0,70.5,30.03,East,94,1.0,4.0,92,0.00,,,0.58,Wunderground v.1.13,2013-05-28 22:20:00,
2013-05-28 18:26:00,73.7,71.5,30.03,East,83,0.0,16.0,93,0.00,,,0.58,Wunderground v.1.13,2013-05-28 22:26:00,
2013-05-28 18:32:00,74.5,72.0,30.04,ENE,69,1.0,16.0,92,0.00,,,0.59,Wunderground v.1.13,2013-05-28 22:32:00,
2013-05-28 18:38:00,75.3,72.8,30.03,East,88,1.0,16.0,92,0.00,,,0.59,Wunderground v.1.13,2013-05-28 22:38:00,
2013-05-28 18:44:00,75.8,73.0,30.03,East,83,1.0,16.0,91,0.00,,,0.59,Wunderground v.1.13,2013-05-28 22:44:00,
2013-05-28 18:50:00,76.1,73.0,30.03,ESE,107,1.0,16.0,90,0.00,,,0.59,Wunderground v.1.13,2013-05-28 22:50:00,
2013-05-28 18:56:00,76.4,73.2,30.03,ESE,115,1.0,16.0,90,0.00,,,0.59,Wunderground v.1.13,2013-05-28 22:56:00,
2013-05-28 19:02:00,76.7,72.9,30.04,SE,128,1.0,16.0,88,0.00,,,0.59,Wunderground v.1.13,2013-05-28 23:02:00,
2013-05-28 19:08:00,76.9,72.7,30.04,East,84,1.0,1.0,87,0.00,,,0.59,Wunderground v.1.13,2013-05-28 23:08:00,
2013-05-28 19:14:00,77.2,73.0,30.05,East,84,0.0,0.0,87,0.00,,,0.59,Wunderground v.1.13,2013-05-28 23:14:00,
2013-05-28 19:20:00,77.4,72.9,30.05,East,81,0.0,11.0,86,0.00,,,0.59,Wunderground v.1.13,2013-05-28 23:20:00,
2013-05-28 19:26:00,77.6,73.1,30.05,ENE,71,1.0,11.0,86,0.00,,,0.59,Wunderground v.1.13,2013-05-28 23:26:00,
2013-05-28 19:32:00,77.6,72.7,30.05,East,82,0.0,11.0,85,0.00,,,0.59,Wunderground v.1.13,2013-05-28 23:32:00,
2013-05-28 19:38:00,77.7,73.2,30.05,East,83,1.0,11.0,86,0.00,,,0.59,Wunderground v.1.13,2013-05-28 23:38:00,
2013-05-28 19:44:00,77.7,72.8,30.06,East,82,1.0,11.0,85,0.00,,,0.59,Wunderground v.1.13,2013-05-28 23:44:00,
2013-05-28 19:50:00,77.8,72.9,30.05,East,88,1.0,11.0,85,0.00,,,0.59,Wunderground v.1.13,2013-05-28 23:50:00,
2013-05-28 19:56:00,78.0,73.1,30.06,East,96,1.0,2.0,85,0.00,,,0.59,Wunderground v.1.13,2013-05-28 23:56:00,
2013-05-28 20:02:00,77.9,73.0,30.05,ENE,73,0.0,11.0,85,0.00,,,0.59,Wunderground v.1.13,2013-05-29 00:02:00,
2013-05-28 20:08:00,78.0,73.1,30.06,ENE,65,1.0,5.0,85,0.00,,,0.59,Wunderground v.1.13,2013-05-29 00:08:00,
2013-05-28 20:14:00,78.2,73.0,30.06,East,92,3.0,3.0,84,0.00,,,0.59,Wunderground v.1.13,2013-05-29 00:14:00,
2013-05-28 20:20:00,78.3,72.7,30.06,East,101,2.0,9.0,83,0.00,,,0.59,Wunderground v.1.13,2013-05-29 00:20:00,
2013-05-28 20:26:00,78.3,72.7,30.06,East,98,2.0,9.0,83,0.00,,,0.59,Wunderground v.1.13,2013-05-29 00:26:00,
2013-05-28 20:32:00,78.2,72.6,30.06,East,83,3.0,9.0,83,0.00,,,0.59,Wunderground v.1.13,2013-05-29 00:32:00,
2013-05-28 20:38:00,78.1,72.5,30.06,East,88,2.0,9.0,83,0.00,,,0.59,Wunderground v.1.13,2013-05-29 00:38:00,
2013-05-28 20:44:00,77.8,72.6,30.07,East,87,2.0,9.0,84,0.00,,,0.59,Wunderground v.1.13,2013-05-29 00:44:00,
2013-05-28 20:50:00,77.4,72.2,30.06,ESE,121,2.0,9.0,84,0.00,,,0.59,Wunderground v.1.13,2013-05-29 00:50:00,
2013-05-28 20:56:00,77.3,72.1,30.06,East,91,1.0,2.0,84,0.00,,,0.59,Wunderground v.1.13,2013-05-29 00:56:00,
2013-05-28 21:02:00,77.1,71.9,30.07,East,90,1.0,9.0,84,0.00,,,0.59,Wunderground v.1.13,2013-05-29 01:02:00,
2013-05-28 21:08:00,76.9,71.3,30.07,East,99,1.0,1.0,83,0.00,,,0.59,Wunderground v.1.13,2013-05-29 01:08:00,
2013-05-28 21:14:00,76.9,71.0,30.07,ESE,107,2.0,3.0,82,0.00,,,0.59,Wunderground v.1.13,2013-05-29 01:14:00,
2013-05-28 21:20:00,76.9,71.0,30.08,ESE,106,2.0,11.0,82,0.00,,,0.59,Wunderground v.1.13,2013-05-29 01:20:00,
2013-05-28 21:26:00,76.9,71.0,30.07,East,82,1.0,11.0,82,0.00,,,0.59,Wunderground v.1.13,2013-05-29 01:26:00,
2013-05-28 21:32:00,76.8,71.2,30.07,SE,125,2.0,11.0,83,0.00,,,0.59,Wunderground v.1.13,2013-05-29 01:32:00,
2013-05-28 21:38:00,76.8,71.2,30.07,ENE,65,2.0,11.0,83,0.00,,,0.59,Wunderground v.1.13,2013-05-29 01:38:00,
2013-05-28 21:44:00,76.7,71.1,30.08,East,99,3.0,11.0,83,0.00,,,0.59,Wunderground v.1.13,2013-05-29 01:44:00,
2013-05-28 21:50:00,76.6,71.0,30.08,ESE,103,1.0,11.0,83,0.00,,,0.59,Wunderground v.1.13,2013-05-29 01:50:00,
2013-05-28 21:56:00,76.5,70.9,30.08,ESE,103,1.0,11.0,83,0.00,,,0.59,Wunderground v.1.13,2013-05-29 01:56:00,
2013-05-28 22:02:00,76.4,71.2,30.08,ESE,113,1.0,11.0,84,0.00,,,0.59,Wunderground v.1.13,2013-05-29 02:02:00,
2013-05-28 22:08:00,76.4,71.2,30.08,ENE,68,0.0,0.0,84,0.00,,,0.59,Wunderground v.1.13,2013-05-29 02:08:00,
2013-05-28 22:14:00,76.3,71.1,30.08,East,84,1.0,3.0,84,0.00,,,0.59,Wunderground v.1.13,2013-05-29 02:14:00,
2013-05-28 22:20:00,76.2,71.0,30.08,East,94,1.0,9.0,84,0.00,,,0.59,Wunderground v.1.13,2013-05-29 02:20:00,
2013-05-28 22:26:00,76.2,71.0,30.08,ESE,102,1.0,9.0,84,0.00,,,0.59,Wunderground v.1.13,2013-05-29 02:26:00,
2013-05-28 22:32:00,76.2,71.0,30.09,East,98,1.0,9.0,84,0.00,,,0.59,Wunderground v.1.13,2013-05-29 02:32:00,
2013-05-28 22:38:00,76.2,71.0,30.09,ENE,76,1.0,4.0,84,0.00,,,0.59,Wunderground v.1.13,2013-05-29 02:38:00,
2013-05-28 22:44:00,76.1,70.9,30.09,ESE,114,1.0,9.0,84,0.00,,,0.59,Wunderground v.1.13,2013-05-29 02:44:00,
2013-05-28 22:50:00,76.1,70.9,30.09,ESE,115,1.0,9.0,84,0.00,,,0.59,Wunderground v.1.13,2013-05-29 02:50:00,
2013-05-28 22:56:00,76.2,71.0,30.09,East,95,2.0,4.0,84,0.00,,,0.59,Wunderground v.1.13,2013-05-29 02:56:00,
2013-05-28 23:02:00,76.2,71.0,30.09,ESE,105,2.0,10.0,84,0.00,,,0.59,Wunderground v.1.13,2013-05-29 03:02:00,
2013-05-28 23:08:00,76.3,71.5,30.09,ENE,66,3.0,3.0,85,0.00,,,0.59,Wunderground v.1.13,2013-05-29 03:08:00,
2013-05-28 23:14:00,76.2,71.4,30.09,ESE,105,3.0,5.0,85,0.00,,,0.59,Wunderground v.1.13,2013-05-29 03:14:00,
2013-05-28 23:20:00,76.1,71.6,30.09,ESE,106,1.0,11.0,86,0.00,,,0.59,Wunderground v.1.13,2013-05-29 03:20:00,
2013-05-28 23:26:00,76.1,71.6,30.09,SE,132,1.0,11.0,86,0.00,,,0.59,Wunderground v.1.13,2013-05-29 03:26:00,
2013-05-28 23:32:00,76.1,71.6,30.09,ESE,117,1.0,11.0,86,0.00,,,0.59,Wunderground v.1.13,2013-05-29 03:32:00,
2013-05-28 23:38:00,76.0,71.5,30.09,East,91,1.0,11.0,86,0.00,,,0.59,Wunderground v.1.13,2013-05-29 03:38:00,
2013-05-28 23:44:00,75.9,71.8,30.09,ENE,78,1.0,11.0,87,0.00,,,0.59,Wunderground v.1.13,2013-05-29 03:44:00,
2013-05-28 23:50:00,75.9,71.8,30.09,ESE,111,2.0,11.0,87,0.00,,,0.59,Wunderground v.1.13,2013-05-29 03:50:00,
2013-05-28 23:56:00,75.8,71.3,30.09,ESE,110,2.0,11.0,86,0.00,,,0.59,Wunderground v.1.13,2013-05-29 03:56:00,